[[{"header":{"parameterUnit":"m.s-1","parameterCategory":1,"la1":30.2991,"la2":30.254,"lo1":-89.0895,"lo2":-89.0444,"dy":0.0017,"dx":0.0017,"nx":28,"ny":28,"refTime":"2024-07-25T09:00:00:Z","depth":0,"parameterNumber":2,"parameterNumberName":"U-component_of_WINDS"},"data":[0,0,0,0,0,0,0,0,0,0,0,0,0,0,0,0,0,0,0,0,0,0,0,0,0,0,0,0,0,0,0,0,0,0,0,0,0,0,0,0,0,0,0,0,0,0,0,0,0,0,0,0,0,0,0,0,0,0,-0.3433,-0.3432,0,-0.331,-0.3308,-0.3307,-0.3213,-0.3212,-0.3211,-0.321,-0.3081,-0.3079,-0.3076,0,0,0,0,0,0,0,0,0,0,0,0,0,-0.3587,-0.3585,-0.3434,-0.3432,-0.3431,-0.331,-0.3308,-0.3307,-0.3213,-0.3212,-0.3211,-0.321,-0.3082,-0.3079,-0.3076,0,0,0,0,0,0,0,0,0,0,0,0,0,-0.3498,-0.3584,-0.3434,-0.3369,-0.3362,-0.331,-0.3308,-0.3306,-0.3213,-0.3212,-0.321,-0.3209,-0.3083,-0.3079,-0.3075,-0.3077,0,0,-0.3063,-0.3062,0,0,0,0,0,0,0,0,-0.3503,-0.3492,-0.338,-0.3374,-0.3366,-0.3275,-0.3315,-0.3229,-0.3213,-0.327,-0.321,-0.3208,-0.3147,-0.3137,-0.3117,-0.3071,-0.3066,-0.3063,-0.3061,-0.3059,-0.3058,0,0,0,0,0,0,0,-0.3509,-0.3497,-0.3384,-0.3379,-0.337,-0.3346,-0.3332,-0.3298,-0.3217,-0.3265,-0.3257,-0.3244,-0.3142,-0.3121,-0.3113,-0.3064,-0.3063,-0.306,-0.3057,-0.3056,-0.3013,-0.3014,0,0,0,0,0,0,-0.3526,-0.3503,-0.3388,-0.3381,-0.3433,-0.3344,-0.3328,-0.3306,-0.3217,-0.3202,-0.3245,-0.324,-0.3128,-0.3118,-0.3108,-0.3105,-0.3059,-0.3055,-0.3053,-0.3012,-0.3013,-0.3015,0,0,0,0,0,0,-0.3529,-0.3516,-0.3393,-0.344,-0.3422,-0.3343,-0.3318,-0.3304,-0.3282,-0.3202,-0.3187,-0.3239,-0.3127,-0.3114,-0.3086,-0.3099,-0.3054,-0.305,-0.301,-0.3012,-0.3014,-0.3098,0,0,0,0,0,0,-0.3534,-0.3518,-0.3519,-0.3441,-0.342,-0.3374,-0.3319,-0.3302,-0.3276,-0.3268,-0.3192,-0.3178,-0.3125,-0.3092,-0.3082,-0.3093,-0.3047,-0.3009,-0.3011,-0.3013,-0.3093,-0.3102,-0.311,0,0,0,0,0,-0.354,-0.3547,-0.3519,-0.3506,-0.3419,-0.3375,-0.3363,-0.3302,-0.3278,-0.3277,-0.3226,-0.3181,-0.3099,-0.309,-0.3078,-0.3088,-0.3008,-0.3011,-0.3013,-0.309,-0.31,-0.311,0,0,0,0,0,0,-0.3627,-0.3535,-0.3504,-0.3485,-0.3439,-0.3359,-0.3356,-0.3315,-0.3274,-0.3268,-0.3194,-0.3177,-0.3157,-0.3119,-0.3111,-0.3085,-0.3048,-0.3048,-0.311,-0.312,-0.3128,-0.3137,-0.3044,0,0,0,0,0,-0.3645,-0.3617,-0.3538,-0.3529,-0.3507,-0.3436,-0.3415,-0.3372,-0.332,-0.33,-0.3246,-0.3197,-0.3161,-0.3138,-0.31,-0.3088,-0.3069,-0.3088,-0.3096,-0.3103,-0.3105,-0.3095,-0.3103,-0.3024,-0.3024,-0.3024,0,0,-0.368,-0.3626,-0.3613,-0.3545,-0.3504,-0.3477,-0.342,-0.3393,-0.3372,-0.3295,-0.3266,-0.3225,-0.3165,-0.3146,-0.3134,-0.3113,-0.3123,-0.3107,-0.3113,-0.311,-0.3099,-0.3107,-0.3113,-0.3026,-0.3025,-0.3025,0,0,-0.373,-0.3687,-0.3675,-0.3635,-0.3574,-0.3526,-0.3524,-0.345,-0.342,-0.339,-0.3332,-0.3305,-0.3243,-0.3203,-0.3175,-0.3211,-0.3168,-0.32,-0.3243,-0.3235,-0.3241,-0.3246,-0.3259,-0.3264,-0.3202,-0.3202,-0.3202,0,-0.3781,-0.3738,-0.3674,-0.3651,-0.3622,-0.3553,-0.354,-0.3504,-0.3434,-0.3415,-0.3394,-0.3315,-0.327,-0.324,-0.3249,-0.3228,-0.3222,-0.3209,-0.3245,-0.325,-0.3254,-0.3265,-0.327,-0.3206,-0.3206,-0.3206,-0.3205,0,-0.3804,-0.3775,-0.3773,-0.3707,-0.3679,-0.3661,-0.3594,-0.3573,-0.3533,-0.3488,-0.3457,-0.3401,-0.335,-0.334,-0.33,-0.3304,-0.3293,-0.326,-0.3221,-0.3267,-0.3276,-0.328,-0.3213,-0.3211,-0.321,-0.3209,0,0,-0.3905,-0.3805,-0.3805,-0.3775,-0.3702,-0.3678,-0.3657,-0.3609,-0.3592,-0.3546,-0.3526,-0.3476,-0.3444,-0.3412,-0.3367,-0.336,-0.3393,-0.3327,-0.3325,-0.3341,-0.3393,-0.342,-0.3426,-0.3364,-0.3364,-0.3365,-0.3399,0,-0.3944,-0.3903,-0.3845,-0.3823,-0.3796,-0.3729,-0.3711,-0.3665,-0.3622,-0.3592,-0.3544,-0.351,-0.3471,-0.3452,-0.3442,-0.3391,-0.3402,-0.3388,-0.3344,-0.3344,-0.3362,-0.343,-0.3457,-0.3492,-0.3402,-0.3402,-0.3403,0,-0.3983,-0.3942,-0.3918,-0.3848,-0.3834,-0.3819,-0.377,-0.3742,-0.3688,-0.3657,-0.3622,-0.3574,-0.3548,-0.3514,-0.3477,-0.3468,-0.3447,-0.342,-0.3419,-0.3413,-0.3376,-0.3426,-0.3501,-0.3507,-0.3408,-0.3407,-0.3407,0,-0.406,-0.3997,-0.3975,-0.3951,-0.3869,-0.386,-0.3825,-0.377,-0.3744,-0.3701,-0.3684,-0.3638,-0.3613,-0.3578,-0.3519,-0.3499,-0.3488,-0.3449,-0.3462,-0.3464,-0.3462,-0.3463,-0.3536,-0.3449,-0.3449,-0.3449,-0.3449,0,-0.4109,-0.4097,-0.4008,-0.3995,-0.3979,-0.3912,-0.3899,-0.3858,-0.3809,-0.3786,-0.3725,-0.3705,-0.3628,-0.3598,-0.3551,-0.3528,-0.3517,-0.3491,-0.3479,-0.3496,-0.35,-0.3481,-0.3477,-0.3451,-0.345,-0.345,-0.345,0,-0.4191,-0.4132,-0.4103,-0.4028,-0.4009,-0.4001,-0.3936,-0.392,-0.3875,-0.3846,-0.3836,-0.3764,-0.3726,-0.3663,-0.3606,-0.3574,-0.356,-0.3539,-0.3579,-0.3571,-0.3588,-0.3587,-0.3651,-0.3656,-0.3567,-0.3568,-0.3569,0,-0.4226,-0.4216,-0.414,-0.4121,-0.4088,-0.4058,-0.4032,-0.3966,-0.3941,-0.3879,-0.387,-0.3828,-0.379,-0.3732,-0.3675,-0.3631,-0.3608,-0.3634,-0.3601,-0.362,-0.3609,-0.361,-0.3609,-0.3642,-0.3643,-0.3644,-0.3645,0,-0.4295,-0.4267,-0.4232,-0.4187,-0.4158,-0.4119,-0.4077,-0.4065,-0.3989,-0.3965,-0.3925,-0.3896,-0.3839,-0.3797,-0.3746,-0.3709,-0.3664,-0.3656,-0.3656,-0.3674,-0.3698,-0.3685,-0.3599,-0.3654,-0.3653,-0.3653,-0.3652,-0.3652,-0.4355,-0.4343,-0.4288,-0.4251,-0.4213,-0.4175,-0.4157,-0.4109,-0.4076,-0.4025,-0.3987,-0.3951,-0.3897,-0.3823,-0.3789,-0.3759,-0.3739,-0.374,-0.374,-0.3741,-0.3748,-0.3703,-0.3749,-0.3749,-0.3748,-0.3748,-0.3748,0,-0.4421,-0.4382,-0.4349,-0.4293,-0.4265,-0.4226,-0.4178,-0.4156,-0.4125,-0.4079,-0.4044,-0.3999,-0.3958,-0.3898,-0.3852,-0.384,-0.3818,-0.383,-0.383,-0.3823,-0.3769,-0.3773,-0.3849,-0.3849,-0.3849,-0.3849,-0.3849,-0.3849,-0.4452,-0.4429,-0.4394,-0.4351,-0.4312,-0.4277,-0.4253,-0.4218,-0.4181,-0.4134,-0.41,-0.4061,-0.4009,-0.396,-0.3921,-0.3904,-0.389,-0.3908,-0.3885,-0.3836,-0.3827,-0.3818,-0.3821,-0.3906,-0.3906,-0.3942,-0.3942,-0.3942]},{"header":{"parameterUnit":"m.s-1","parameterCategory":1,"la1":30.2991,"la2":30.254,"lo1":-89.0895,"lo2":-89.0444,"dy":0.0017,"dx":0.0017,"nx":28,"ny":28,"refTime":"2024-07-25T09:00:00:Z","depth":0,"parameterNumber":3,"parameterNumberName":"V-component_of_WINDS"},"data":[0,0,0,0,0,0,0,0,0,0,0,0,0,0,0,0,0,0,0,0,0,0,0,0,0,0,0,0,0,0,0,0,0,0,0,0,0,0,0,0,0,0,0,0,0,0,0,0,0,0,0,0,0,0,0,0,0,0,2.0361,2.0361,0,2.0388,2.0388,2.0388,2.0396,2.0396,2.0396,2.0396,2.042,2.0421,2.0422,0,0,0,0,0,0,0,0,0,0,0,0,0,2.0315,2.0316,2.0361,2.0362,2.0362,2.0388,2.0388,2.0388,2.0396,2.0396,2.0396,2.0395,2.042,2.0421,2.0422,0,0,0,0,0,0,0,0,0,0,0,0,0,2.0338,2.0316,2.0361,2.0369,2.037,2.0388,2.0388,2.0389,2.0396,2.0396,2.0396,2.0395,2.042,2.0421,2.0422,2.0433,0,0,2.0426,2.0426,0,0,0,0,0,0,0,0,2.0336,2.0339,2.0367,2.0368,2.0369,2.0388,2.0381,2.0403,2.0396,2.0386,2.0396,2.0395,2.041,2.0412,2.0417,2.0434,2.0436,2.0426,2.0426,2.0427,2.0427,0,0,0,0,0,0,0,2.0335,2.0338,2.0372,2.0368,2.0369,2.037,2.0373,2.0385,2.0398,2.0387,2.0387,2.0391,2.041,2.0416,2.0418,2.0436,2.0426,2.0427,2.0427,2.0428,2.0465,2.0465,0,0,0,0,0,0,2.0332,2.0337,2.0371,2.0372,2.0352,2.0371,2.0375,2.0382,2.0398,2.0401,2.0391,2.0391,2.0414,2.0416,2.0418,2.0434,2.0427,2.0428,2.0429,2.0464,2.0465,2.0465,0,0,0,0,0,0,2.0331,2.0335,2.037,2.0355,2.0359,2.0372,2.0381,2.0383,2.0389,2.0401,2.0404,2.0394,2.0414,2.0417,2.043,2.0434,2.0429,2.043,2.0464,2.0465,2.0465,2.0463,0,0,0,0,0,0,2.033,2.0335,2.034,2.0355,2.036,2.0381,2.0381,2.0384,2.0391,2.0392,2.0405,2.0407,2.0414,2.0428,2.0431,2.0436,2.043,2.0464,2.0464,2.0465,2.0463,2.0463,2.0464,0,0,0,0,0,2.0328,2.0337,2.034,2.0344,2.0367,2.0382,2.0384,2.0392,2.0391,2.0396,2.0404,2.0407,2.0433,2.0429,2.0433,2.0438,2.0464,2.0464,2.0465,2.0463,2.0463,2.0464,0,0,0,0,0,0,2.0321,2.0339,2.0342,2.0357,2.0368,2.0383,2.0389,2.0393,2.0403,2.0403,2.0412,2.0415,2.0428,2.0434,2.0429,2.045,2.0448,2.045,2.0446,2.0446,2.0447,2.0445,2.0431,0,0,0,0,0,2.0321,2.0333,2.0348,2.0359,2.0365,2.0376,2.0383,2.0388,2.0399,2.0404,2.0413,2.0423,2.0433,2.044,2.0451,2.0464,2.0467,2.0469,2.047,2.047,2.0471,2.0479,2.048,2.0467,2.0467,2.0467,0,0,2.0322,2.0333,2.034,2.0358,2.0367,2.0378,2.038,2.0391,2.0399,2.0405,2.0418,2.0425,2.0437,2.0451,2.0457,2.0456,2.0475,2.0471,2.0471,2.0472,2.048,2.0481,2.0482,2.0468,2.0467,2.0467,0,0,2.0328,2.0338,2.0349,2.0358,2.0372,2.038,2.0383,2.0397,2.0403,2.0416,2.0421,2.0431,2.0449,2.0457,2.0464,2.0474,2.0477,2.0477,2.048,2.0488,2.0489,2.049,2.0494,2.0496,2.0478,2.0478,2.0478,0,2.0327,2.0345,2.0354,2.0366,2.0374,2.038,2.0391,2.04,2.0416,2.0421,2.042,2.0444,2.0452,2.0468,2.0471,2.0476,2.0479,2.0476,2.0488,2.0489,2.049,2.0495,2.0496,2.0478,2.0478,2.0478,2.0478,0,2.0342,2.0354,2.0361,2.0378,2.0387,2.0398,2.0409,2.0416,2.0421,2.0429,2.0443,2.0453,2.0466,2.047,2.0474,2.0487,2.0486,2.0487,2.0485,2.0492,2.0496,2.0497,2.0478,2.0478,2.0478,2.0478,0,0,2.0345,2.0368,2.037,2.0378,2.0394,2.0404,2.0415,2.0429,2.0435,2.0446,2.0456,2.0472,2.0473,2.048,2.0486,2.0492,2.0501,2.0492,2.0493,2.0494,2.0516,2.0515,2.0517,2.0503,2.0503,2.0503,2.0515,0,2.0354,2.0376,2.0385,2.0402,2.0414,2.0421,2.043,2.0441,2.0449,2.0459,2.0467,2.0478,2.0478,2.0483,2.049,2.0498,2.0505,2.0497,2.0512,2.0512,2.0509,2.0519,2.0519,2.0529,2.0516,2.0517,2.0517,0,2.0367,2.038,2.0399,2.0414,2.042,2.0428,2.0442,2.0452,2.0464,2.0469,2.0478,2.0483,2.0495,2.0493,2.051,2.0504,2.051,2.0515,2.0516,2.0518,2.0515,2.0522,2.0532,2.0534,2.0519,2.0519,2.0519,0,2.0368,2.0389,2.0404,2.041,2.0429,2.0435,2.0443,2.0455,2.0463,2.0475,2.048,2.0492,2.0499,2.0509,2.0517,2.0514,2.0533,2.0531,2.0537,2.0537,2.0541,2.0541,2.0553,2.0544,2.0544,2.0544,2.0544,0,2.0377,2.0388,2.0404,2.0413,2.0426,2.0436,2.0448,2.0457,2.0468,2.0478,2.0484,2.0493,2.0504,2.0514,2.052,2.0533,2.0536,2.054,2.0542,2.054,2.054,2.0545,2.0544,2.0545,2.0545,2.0544,2.0544,0,2.038,2.0391,2.0407,2.0424,2.0428,2.0437,2.0451,2.046,2.0468,2.0481,2.0484,2.0497,2.0509,2.0519,2.0535,2.0539,2.0553,2.0554,2.0549,2.055,2.0556,2.0556,2.0573,2.0576,2.0564,2.0564,2.0564,0,2.0385,2.0394,2.0413,2.0421,2.0429,2.0441,2.045,2.046,2.0468,2.0484,2.049,2.0504,2.0515,2.0535,2.0545,2.0558,2.056,2.0565,2.0561,2.0559,2.056,2.056,2.0561,2.0565,2.0565,2.0565,2.0565,0,2.0394,2.0399,2.0412,2.0427,2.0437,2.0449,2.046,2.0466,2.0479,2.0488,2.0502,2.051,2.0528,2.0541,2.0555,2.0562,2.0566,2.0566,2.0569,2.0567,2.0564,2.0566,2.0551,2.0566,2.0566,2.0566,2.0566,2.0566,2.0398,2.0407,2.0422,2.0436,2.0446,2.0457,2.0466,2.0476,2.0488,2.0504,2.0509,2.0523,2.0536,2.0555,2.0562,2.0573,2.0573,2.0576,2.0577,2.0577,2.0578,2.0562,2.0576,2.0576,2.0576,2.0576,2.0576,0,2.0408,2.0418,2.0431,2.0448,2.0459,2.0462,2.0476,2.0484,2.0497,2.0509,2.0521,2.0537,2.055,2.0561,2.0575,2.0581,2.0584,2.0585,2.0584,2.0586,2.0577,2.0574,2.0583,2.0583,2.0583,2.0583,2.0583,2.0583,2.0414,2.0429,2.0436,2.0457,2.0466,2.0482,2.0489,2.0499,2.0509,2.0527,2.0538,2.0546,2.0558,2.0572,2.0584,2.0587,2.0592,2.0593,2.0596,2.0587,2.0587,2.0586,2.0583,2.0594,2.0594,2.0605,2.0605,2.0605]}]]